This demonstration page uses our WeatherBlox Daily Observations layout. Learn more.

Left ArrowRight Arrow

34.74481, -87.66753

Hourly Observations for July 24, 2016

Temp ( °F °C ) Dew Point ( °F °C ) Humidity (%) Winds ( mph kmh ) Pressure ( in mb ) Visibility ( mi km ) Precip ( " mm )
12:53 am 00:53 Clear 76 24.4 72 22.2 88 88 SE 5 7 29.99 1016 10 16 0.00 0.00
1:53 am 01:53 Clear 76 24.4 72 22.2 88 88 SSE 3 6 29.99 1016 10 16 0.00 0.00
2:53 am 02:53 Clear 74 23.3 71 21.7 91 91 Calm 29.96 1015 10 16 0.00 0.00
3:53 am 03:53 Clear 74 23.3 70 21.1 88 88 ESE 5 7 29.97 1015 10 16 0.00 0.00
4:53 am 04:53 Clear 74 23.3 70 21.1 88 88 Calm 29.98 1015 10 16 0.00 0.00
5:53 am 05:53 Clear 74 23.3 70 21.1 88 88 Calm 29.98 1015 10 16 0.00 0.00
6:53 am 06:53 Sunny 76 24.4 71 21.7 85 85 Calm 30.00 1016 9 14 0.00 0.00
7:53 am 07:53 Sunny 79 26.1 72 22.2 79 79 VRB 3 6 30.01 1016 10 16 0.00 0.00
8:53 am 08:53 Sunny 84 28.9 74 23.3 72 72 SSW 7 11 30.02 1017 9 14 0.00 0.00
9:53 am 09:53 Sunny 88 31.1 75 23.9 66 66 undefined N/A 30.02 1017 10 16 0.00 0.00
10:53 am 10:53 Mostly Sunny 89 31.7 74 23.3 61 61 SSW 6 9 30.02 1017 10 16 0.00 0.00
11:53 am 11:53 Sunny 91 32.8 73 22.8 56 56 Calm 30.01 1016 10 16 0.00 0.00
12:53 pm 12:53 Mostly Sunny 93 33.9 71 21.7 49 49 S 7 11 30.00 1016 10 16 0.00 0.00
1:53 pm 13:53 Mostly Sunny 96 35.6 71 21.7 44 44 WSW 8 13 29.98 1015 10 16 0.00 0.00
2:53 pm 14:53 Partly Cloudy 97 36.1 71 21.7 43 43 WSW 9 15 29.96 1014 10 16 0.00 0.00
3:53 pm 15:53 Cloudy 93 33.9 71 21.7 49 49 VRB 3 6 29.94 1014 10 16 0.00 0.00
4:01 pm 16:01 Cloudy with Thunderstorms 91 32.8 74 23.3 57 57 VRB 3 6 29.91 1013 9 14 0.00 0.03
4:09 pm 16:09 Cloudy with Strong Thunderstorms 82 27.8 73 22.8 74 74 WSW 29 46 29.97 1015 2 2 0.14 3.56
4:20 pm 16:20 Mostly Cloudy with Strong Thunderstorms 76 24.4 70 21.1 82 82 VRB 7 11 29.97 1015 1 1 0.51 12.95
4:43 pm 16:43 Mostly Cloudy with Strong Thunderstorms 76 24.4 70 21.1 82 82 NNW 12 19 29.97 1015 1 2 1.14 28.96
4:53 pm 16:53 Cloudy with Thunderstorms 75 23.9 71 21.7 88 88 N 7 11 29.97 1015 3 5 1.18 29.97
5:45 pm 17:45 Sunny 78 25.6 73 22.8 85 85 Calm 29.94 1014 10 16 0.00 0.03
5:53 pm 17:53 Sunny 79 26.1 74 23.3 85 85 Calm 29.96 1015 10 16 0.00 0.03
6:53 pm 18:53 Sunny 79 26.1 76 24.4 90 90 S 3 6 29.98 1015 8 13 0.00 0.00
7:53 pm 19:53 Mostly Cloudy 79 26.1 74 23.3 85 85 ESE 6 9 30.00 1016 10 16 0.00 0.00
8:53 pm 20:53 Partly Cloudy 79 26.1 75 23.9 88 88 WSW 5 7 30.00 1016 10 16 0.00 0.00
9:53 pm 21:53 Clear 77 25 74 23.3 90 90 Calm 30.01 1016 9 14 0.00 0.00
10:53 pm 22:53 Clear 77 25 74 23.3 90 90 Calm 30.00 1016 8 13 0.00 0.00
11:53 pm 23:53 Clear 76 24.4 73 22.8 91 91 Calm 29.99 1016 9 14 0.00 0.00

Powered by AerisWeather